{"data":{"norad_id":48881,"intl_designator":"2021-059C","name":"STARLINK-3005","alt_names":[],"object_type":"PAYLOAD","status":"ACTIVE","operator":null,"country":"US","launch_date":"2021-06-30","launch_site_code":"AFETR","launch_vehicle":null,"mission":null,"orbit_class":"UNKNOWN","rcs_meters":null,"size_class":null,"mass_kg":null,"dimensions":null,"purposes":["comms"],"wikipedia_slug":null,"has_3d_model":false,"image_url":null,"decayed_at":null,"tle_current":{"epoch":"2026-09-19T13:46:27.602112Z","epoch_age_seconds":121419,"freshness":"FRESH","line1":"1 48881U 21059C   26262.57393058 -.00000320  00000+0 -20722-4 0  9997","line2":"2 48881  97.2823  22.9661 0000645 189.0209 171.1005 15.01269139287898","mean_motion":15.01269139,"eccentricity":6.45e-5,"inclination_deg":97.2823,"raan_deg":22.9661,"arg_perigee_deg":189.0209,"mean_anomaly_deg":171.1005,"bstar":-2.0722e-5,"rev_number":28789,"period_min":95.918843769691,"perigee_km":562.53397565654,"apogee_km":563.42937996597,"semimajor_km":6941.1186778113,"source":"CELESTRAK","updated_at":"2026-09-20T09:00:39.246328Z"}}}